Location: Newark
(47.5833°N, 8.1500°E)
Time: 11:34:51
(UTC+00:00)

Vanguard 2 Rocket - Pass Details

Date: 28 October 2020
Orbit: 553 x 3326 km, 32.9° (Epoch: 04 December)

Event Time Altitude Azimuth Distance (km) Brightness Sun altitude
Rises 18:29:49 0° 225° (SW) 2,731 9.9 -23.1°
Reaches altitude 10° 18:32:55 10° 196° (SSW) 1,956 8.7 -23.6°
Enters shadow 18:34:07 13° 180° (S) 1,852 8.4 -23.8°
Maximum altitude 18:35:03 13° 166° (SSE) 1,873 - -24.0°
Drops below altitude 10° 18:37:28 10° 137° (SE) 2,291 - -24.4°
Sets 18:41:47 0° 112° (ESE) 3,672 - -25.1°
